Home > Weather > Heinsberg > Past weeks

Flag for Germany Past Weather in Heinsberg, North Rhine-Westphalia, Germany — Yesterday and Last 2 Weeks

Now
68 °F

Clear.


Feels Like: 68 °F
Forecast: 66 / 85 °F
Wind: 5 mph from Northeast

Location: Maastricht Airport Zuid Limburg

Current Time: Aug 27, 2016 at 3:28:38 AM

Latest Report: Aug 27, 2016 at 2:00 AM


Visibility: 12 mi

Pressure: 30.08 "Hg

Humidity: 85%

Dew Point: 64 °F

Location of HeinsbergLocation

Past Weather in Heinsberg — Graph

°F

Heinsberg Temperature Yesterday

Maximum temperature yesterday: 87 °F (at 2:00 PM)
Minimum temperature yesterday: 68 °F (at 6:00 AM)
Average temperature yesterday: 77 °F

High & Low Weather Summary for the Past Weeks

 TemperatureHumidityPressure
High91 °F (Aug 25, 5:00 PM)100% (Aug 14, 7:00 AM)30.33 "Hg (Aug 14, 7:00 AM)
Low52 °F (Aug 16, 6:00 AM)37% (Aug 24, 4:00 PM)29.79 "Hg (Aug 19, 7:00 PM)
Average68 °F73%30.07 "Hg
* Reported Aug 12 2:00 AM — Aug 27 2:00 AM, Heinsberg, Weather by CustomWeather, © 2016

Note: Actual official high and low records may vary slightly from our data, if they occured in-between our weather recording intervals... More about our weather records

Advertising

Heinsberg Weather History for the Previous 24 Hours

Scroll right to see more
 ConditionsComfort  
Time TempWeatherWind HumidityBarometerVisibility
2:00 AM
Sat, Aug 27
68 °FClear.5 mph85%30.08 "Hg12 mi
1:00 AM70 °FClear.5 mph82%30.09 "Hg10 mi
12:00 AM71 °FClear.6 mph83%30.08 "Hg9 mi
11:00 PM
Fri, Aug 26
73 °FClear.5 mph82%30.07 "Hg7 mi
10:00 PM75 °FClear.6 mph77%30.06 "Hg7 mi
9:00 PM78 °FPassing clouds.5 mph73%30.05 "Hg7 mi
8:00 PM80 °FPassing clouds.3 mph69%30.04 "Hg8 mi
7:00 PM83 °FSunny.2 mph60%30.03 "Hg12 mi
6:00 PM84 °FSunny.2 mph56%30.03 "Hg15 mi
5:00 PM84 °FPassing clouds.3 mph58%30.03 "Hg15 mi
4:00 PM84 °FPassing clouds.5 mph61%30.03 "Hg9 mi
3:00 PM85 °FPassing clouds.5 mph58%30.03 "Hg12 mi
2:00 PM87 °FSunny.N/A53%30.01 "Hg12 mi
1:00 PM84 °FPassing clouds.2 mph58%30.01 "Hg17 mi
12:00 PM82 °FSunny.2 mph61%30.01 "Hg17 mi
11:00 AM81 °FPassing clouds.3 mph64%30.00 "Hg14 mi
10:00 AM79 °FSunny.3 mph65%29.98 "Hg16 mi
9:00 AM74 °FSunny.5 mph73%29.97 "Hg16 mi
8:00 AM71 °FSunny.3 mph78%29.97 "Hg12 mi
7:00 AM69 °FPassing clouds.5 mph79%29.96 "Hg25 mi
6:00 AM68 °FClear.5 mph80%29.94 "Hg22 mi
5:00 AM68 °FClear.3 mph77%29.94 "Hg25 mi
4:00 AM70 °FClear.3 mph71%29.93 "Hg28 mi
3:00 AM72 °FClear.3 mph67%29.93 "Hg28 mi
Weather by CustomWeather, © 2016

See weather overviewHow to use our weather pages